Flag for Israel Weather past 2 weeks in Modi'in-Maccabim-Re'ut, Israel

Now
75 °F

Passing clouds.


Feels Like: 77 °F
Forecast: 73 / 88 °F
Wind: 7 mph from South

Location: Ben Gurion International Airport

Current Time: Sep 15, 2014 at 5:40:13 AM

Latest Report: Sep 15, 2014 at 5:20 AM


Visibility: N/A

Pressure: 29.83 "Hg

Humidity: 74%

Dew point: 66 °F

Location of Modi'in-Maccabim-Re'utLocation

Historic Weather in Modi'in-Maccabim-Re'ut — Graph

°F

Modi'in-Maccabim-Re'ut temperature yesterday

Maximum temperature yesterday: 86 °F (at 12:20 PM)
Minimum temperature yesterday: 72 °F (at 5:20 AM)
Average temperature yesterday: 79 °F

Past Weeks' High & Low Weather Summary

 TemperatureHumidityPressure
High90 °F (Sep 4, 11:50 AM)84% (Aug 31, 5:50 AM)29.95 "Hg (Aug 31, 5:50 AM)
Low72 °F (Sep 14, 5:20 AM)46% (Sep 2, 12:20 PM)29.71 "Hg (Sep 5, 3:20 PM)
Average81 °F64%29.84 "Hg
* Reported Aug 31 4:20 AM — Sep 15 4:20 AM, Modi'in-Maccabim-Re'ut, Weather by CustomWeather, © 2014

Note: Actual official high and low records may vary slightly from our data, if they occured in-between our weather recording intervals... More about our weather records

Advertising

Modi'in-Maccabim-Re'ut weather history for previous 24 hours

 ConditionsComfort  
Time TempWeatherWind HumidityBarometerVisibility
4:20 AM
Sep 15
75 °FPassing clouds.8 mph74%29.83 "HgN/A
3:50 AM75 °FPassing clouds.7 mph74%29.83 "HgN/A
3:20 AM75 °FPassing clouds.7 mph74%29.83 "HgN/A
2:50 AM75 °FPassing clouds.6 mph74%29.83 "HgN/A
2:20 AM75 °FPassing clouds.7 mph74%29.83 "HgN/A
1:50 AM75 °FPassing clouds.7 mph74%29.86 "HgN/A
1:20 AM77 °FPassing clouds.6 mph69%29.86 "HgN/A
12:50 AM77 °FPassing clouds.7 mph69%29.86 "HgN/A
12:20 AM77 °FPassing clouds.7 mph74%29.86 "HgN/A
11:50 PM
Sep 14
79 °FPassing clouds.6 mph70%29.86 "HgN/A
11:20 PM79 °FPassing clouds.5 mph70%29.86 "HgN/A
10:50 PM79 °FPassing clouds.5 mph70%29.86 "HgN/A
10:20 PM79 °FPassing clouds.5 mph70%29.86 "HgN/A
9:50 PM79 °FPassing clouds.2 mph70%29.86 "HgN/A
9:20 PM79 °FPassing clouds.5 mph70%29.86 "HgN/A
8:50 PM79 °FPassing clouds.5 mph70%29.86 "HgN/A
8:20 PM81 °FPassing clouds.8 mph66%29.86 "HgN/A
7:50 PM81 °FPassing clouds.9 mph66%29.86 "HgN/A
7:20 PM81 °FScattered clouds.10 mph66%29.86 "HgN/A
6:50 PM81 °FPassing clouds.9 mph66%29.83 "HgN/A
6:20 PM82 °FScattered clouds.13 mph62%29.83 "HgN/A
5:50 PM82 °FScattered clouds.13 mph62%29.83 "HgN/A
5:20 PM84 °FPassing clouds.13 mph55%29.83 "HgN/A
4:50 PM84 °FPassing clouds.13 mph55%29.83 "HgN/A
4:20 PM86 °FPassing clouds.13 mph52%29.83 "HgN/A
3:50 PM86 °FPassing clouds.13 mph46%29.83 "HgN/A
3:20 PM86 °FPassing clouds.10 mph49%29.83 "HgN/A
2:50 PM86 °FScattered clouds.13 mph49%29.83 "HgN/A
2:20 PM86 °FScattered clouds.13 mph46%29.83 "HgN/A
1:50 PM86 °FScattered clouds.10 mph52%29.83 "HgN/A
1:20 PM86 °FScattered clouds.12 mph46%29.83 "HgN/A
12:50 PM84 °FScattered clouds.12 mph58%29.83 "HgN/A
12:20 PM86 °FScattered clouds.12 mph52%29.86 "HgN/A
11:50 AM84 °FScattered clouds.9 mph55%29.86 "HgN/A
11:20 AM84 °FScattered clouds.10 mph48%29.86 "HgN/A
10:50 AM84 °FScattered clouds.10 mph51%29.86 "HgN/A
10:20 AM82 °FScattered clouds.6 mph55%29.86 "HgN/A
9:50 AM82 °FScattered clouds.3 mph55%29.86 "HgN/A
9:20 AM81 °FPassing clouds.6 mph58%29.86 "HgN/A
8:50 AM79 °FPassing clouds.7 mph61%29.86 "HgN/A
8:20 AM77 °FPassing clouds.7 mph65%29.86 "HgN/A
7:50 AM75 °FPassing clouds.6 mph69%29.86 "HgN/A
7:20 AM73 °FPassing clouds.5 mph69%29.86 "HgN/A
6:50 AM72 °FPassing clouds.6 mph73%29.86 "HgN/A
6:20 AM72 °FPassing clouds.5 mph73%29.86 "HgN/A
5:50 AM72 °FPassing clouds.5 mph73%29.86 "HgN/A
5:20 AM72 °FPassing clouds.3 mph73%29.86 "HgN/A
Weather by CustomWeather, © 2014

See weather overviewHow to use our weather pages